TimeCST,TemperatureF,Dew PointF,Humidity,Sea Level PressureIn,VisibilityMPH,Wind Direction,Wind SpeedMPH,Gust SpeedMPH,PrecipitationIn,Events,Conditions,WindDirDegrees,DateUTC
12:53 AM,27.0,10.0,49,30.21,10.0,Calm,Calm,-,N/A,,Overcast,0,2013-01-25 06:53:00
1:53 AM,26.1,10.0,51,30.22,10.0,North,6.9,-,N/A,,Overcast,360,2013-01-25 07:53:00
2:53 AM,26.1,10.0,51,30.21,10.0,NNE,3.5,-,N/A,,Overcast,30,2013-01-25 08:53:00
3:53 AM,25.0,10.9,55,30.19,10.0,Calm,Calm,-,N/A,,Mostly Cloudy,0,2013-01-25 09:53:00
4:00 AM,24.8,10.4,54,30.15,10.0,Calm,Calm,-,N/A,,Scattered Clouds,0,2013-01-25 10:00:00
4:53 AM,21.0,10.0,63,30.19,10.0,Calm,Calm,-,N/A,,Clear,0,2013-01-25 10:53:00
6:53 AM,18.0,10.0,71,30.23,10.0,WSW,4.6,-,N/A,,Clear,250,2013-01-25 12:53:00
7:53 AM,19.0,10.9,71,30.23,10.0,West,5.8,-,N/A,,Clear,270,2013-01-25 13:53:00
8:53 AM,26.1,16.0,66,30.24,10.0,West,6.9,-,N/A,,Clear,270,2013-01-25 14:53:00
9:53 AM,30.9,17.1,57,30.24,10.0,WNW,6.9,-,N/A,,Clear,300,2013-01-25 15:53:00
10:53 AM,35.1,17.1,48,30.25,10.0,WNW,9.2,-,N/A,,Clear,300,2013-01-25 16:53:00
11:53 AM,39.9,18.0,41,30.25,10.0,Variable,4.6,-,N/A,,Clear,0,2013-01-25 17:53:00
12:53 PM,43.0,19.0,38,30.23,10.0,Variable,5.8,-,N/A,,Clear,0,2013-01-25 18:53:00
1:53 PM,45.0,19.9,37,30.21,10.0,NW,6.9,-,N/A,,Clear,310,2013-01-25 19:53:00
2:53 PM,48.0,19.0,32,30.19,10.0,Variable,3.5,-,N/A,,Clear,0,2013-01-25 20:53:00
3:53 PM,48.0,19.9,33,30.20,10.0,SW,3.5,-,N/A,,Clear,230,2013-01-25 21:53:00
4:53 PM,45.0,19.9,37,30.21,10.0,SW,3.5,-,N/A,,Clear,230,2013-01-25 22:53:00
5:53 PM,42.1,19.9,41,30.22,10.0,SSW,3.5,-,N/A,,Clear,200,2013-01-25 23:53:00
6:53 PM,37.0,19.0,48,30.24,10.0,Calm,Calm,-,N/A,,Clear,0,2013-01-26 00:53:00
7:53 PM,33.1,19.9,59,30.25,10.0,Calm,Calm,-,N/A,,Clear,0,2013-01-26 01:53:00
8:53 PM,30.0,19.9,66,30.25,9.0,Calm,Calm,-,N/A,,Clear,0,2013-01-26 02:53:00
9:53 PM,28.9,19.0,67,30.25,10.0,ESE,3.5,-,N/A,,Clear,120,2013-01-26 03:53:00
10:53 PM,27.0,19.0,72,30.26,10.0,Calm,Calm,-,N/A,,Clear,0,2013-01-26 04:53:00
11:53 PM,28.0,19.9,72,30.27,10.0,Calm,Calm,-,N/A,,Clear,0,2013-01-26 05:53:00